Tracking 30995 objects as of 5-Jul-2025
HD Live streaming from Space Station
objects crossing your sky now

SL-24 R/B

Track SL-24 R/B now!
10-day predictions


NORAD ID: 33397
Int'l Code: 2008-049B
Perigee: 682.8 km
Apogee: 1,175.0 km
Inclination: 98.7 °
Period: 103.5 minutes
Semi major axis: 7299 km
RCS: 5.3066 m2 (large)
Launch date: October 1, 2008
Source: Commonwealth of Independent States (former USSR) (CIS)
Launch site: Orenburg, Russia (OREN)

Note: This is a ROCKET BODY
Your satellite tracking list
Your tracking list is empty




NASA's NSSDC Master Catalog

Two Line Element Set (TLE):
1 33397U 08049B   25186.54202512  .00000091  00000-0  67070-4 0  9993
2 33397  98.6898 333.5460 0337153 249.5571 150.6170 13.91953920851325
Source of the keplerian elements: AFSPC